Temp
61 60 60 60 60 60 60 60 59 53 50 50 50 51 52 52 52 51 51 56 57 57 57 55 55 55 55 56 56 56 56 56 56 57 57 58 59 59
60 59 60 60 59 58 58 58 56 57 52 50 49 49 50 50 51 48 49 52 55 55 55 54 53 54 54 54 54 53 53 54 54 55 56 56 57 58
59 59 59 59 58 58 58 56 54 53 50 46 47 47 47 48 47 47 48 47 48 54 54 53 53 53 53 52 52 52 51 51 52 53 54 54 55 56
58 58 58 57 57 57 56 54 53 51 50 46 45 45 46 47 46 45 45 46 45 50 51 52 52 52 52 51 51 50 50 49 50 50 51 52 53 54
59 58 59 57 57 57 56 55 55 52 52 47 44 45 44 46 44 45 43 42 44 47 50 51 52 51 52 51 50 49 48 48 48 49 49 50 51 52
57 58 58 57 57 56 55 55 54 52 51 49 44 43 43 43 44 42 41 41 40 44 47 48 49 50 51 52 49 47 47 47 47 48 48 49 49 50
53 53 54 54 52 56 55 55 53 51 49 47 43 42 41 41 43 41 41 39 39 42 41 42 42 41 41 50 47 46 46 46 46 47 47 48 48 49
50 51 52 49 50 51 52 52 53 51 48 47 43 44 42 41 41 40 38 37 36 40 38 37 37 36 39 41 46 46 46 46 46 46 46 47 47 48
46 47 48 48 48 49 50 50 50 51 53 50 45 44 42 42 41 36 36 35 36 35 36 33 34 34 38 41 45 46 45 45 45 45 45 46 47 47
42 43 45 45 45 46 46 45 47 48 48 48 49 46 46 44 44 41 39 35 35 34 35 32 31 32 32 34 43 45 45 44 44 45 46 45 44 45
43 43 44 45 47 48 44 42 42 42 46 47 47 46 46 46 44 40 36 36 33 32 33 34 29 29 30 30 33 43 44 44 44 45 45 43 42 41
44 42 44 44 46 47 44 42 40 40 39 39 41 43 45 45 45 43 38 37 33 32 34 32 28 29 26 29 30 31 33 44 44 45 43 43 40 31
42 42 42 45 46 46 47 42 42 39 40 37 37 35 38 38 39 36 38 38 33 33 32 29 25 26 25 24 28 30 30 31 32 37 41 41 42 36
40 42 43 44 44 45 46 44 45 41 36 34 34 34 35 35 35 32 33 32 34 34 34 29 25 25 21 19 24 27 27 27 29 28 27 35 40 41
41 42 43 44 44 44 45 45 44 36 35 34 34 34 33 31 30 29 29 30 29 30 31 28 25 20 21 18 20 21 25 27 25 23 23 25 26 25
40 39 41 42 43 43 43 44 40 36 36 35 34 32 30 27 26 27 28 26 25 27 29 26 20 23 16 17 19 19 19 20 21 21 24 24 28 28
38 36 36 36 37 37 38 39 38 36 35 35 33 31 30 29 29 27 25 24 22 26 26 27 26 25 21 22 19 21 22 21 21 21 24 22 25 27
35 34 35 35 35 36 36 37 36 36 35 33 33 32 31 30 28 27 25 24 23 23 25 26 25 21 23 26 29 23 20 23 20 23 23 19 21 25
32 33 33 34 35 36 36 36 35 36 34 32 32 31 30 30 31 28 27 26 23 22 19 22 19 19 16 19 24 33 21 20 21 22 23 24 21 23
32 32 32 33 35 35 34 35 34 32 32 32 32 31 30 29 28 27 27 26 25 19 17 16 22 18 20 20 21 22 32 20 21 22 23 25 28 33
31 31 32 33 33 35 34 33 33 33 33 32 32 31 30 30 29 28 27 30 28 21 22 22 25 30 14 20 23 23 27 33 29 23 23 23 24 24
32 31 31 32 33 34 34 33 32 33 33 32 32 31 31 31 29 28 28 28 27 26 27 27 24 20 19 24 21 20 23 27 32 34 33 32 25 22
30 31 31 32 33 33 34 33 32 33 33 33 32 31 30 29 30 29 29 29 29 27 25 23 23 24 26 25 22 21 22 22 26 28 28 35 34 34
MSLP
1011.77 1011.77 1011.85 1011.98 1012.17 1012.53 1012.81 1012.88 1013.04 1013.67 1014.40 1014.77 1015.24 1015.44 1015.74 1016.22 1016.52 1016.64 1016.55 1016.70 1017.01 1017.39 1017.74 1017.99 1018.52 1018.72 1018.84 1018.98 1019.18 1019.28 1019.42 1019.36 1019.27 1019.41 1019.21 1019.11 1018.70 1018.26
1010.92 1010.73 1010.97 1011.16 1011.49 1011.46 1011.81 1011.89 1012.22 1012.56 1013.40 1014.04 1014.83 1015.21 1015.48 1016.28 1016.54 1016.46 1016.64 1016.94 1017.27 1017.51 1017.76 1018.11 1018.42 1018.50 1018.82 1019.13 1019.36 1019.70 1019.60 1019.42 1019.34 1019.32 1019.23 1019.12 1018.72 1018.30
1010.13 1010.11 1010.50 1010.57 1010.74 1011.17 1011.32 1011.23 1011.46 1012.13 1012.97 1014.15 1014.19 1014.91 1015.75 1016.18 1015.98 1016.60 1016.88 1017.23 1017.54 1017.76 1017.86 1018.16 1018.46 1018.84 1018.83 1018.99 1019.05 1019.37 1019.47 1019.60 1019.56 1019.44 1019.19 1019.01 1018.75 1018.32
1009.59 1009.51 1009.56 1009.89 1010.07 1010.25 1010.60 1010.69 1010.89 1011.79 1012.42 1013.60 1014.10 1014.58 1015.10 1015.59 1015.86 1016.33 1017.05 1017.31 1017.59 1017.81 1017.98 1018.28 1018.52 1018.85 1018.74 1019.36 1019.16 1019.38 1019.80 1019.86 1019.85 1019.72 1019.32 1019.28 1018.97 1018.13
1008.67 1008.74 1008.63 1009.08 1009.20 1009.43 1009.80 1010.18 1010.62 1011.20 1011.75 1012.70 1013.41 1014.11 1014.77 1015.30 1015.90 1016.59 1016.98 1017.36 1017.62 1017.78 1017.80 1017.97 1018.04 1018.39 1018.25 1018.66 1019.18 1019.63 1020.04 1019.96 1019.75 1019.67 1019.42 1019.29 1019.10 1018.21
1008.26 1007.92 1008.17 1008.46 1008.66 1008.86 1009.11 1009.36 1009.87 1010.35 1010.96 1011.74 1012.21 1013.27 1014.03 1014.91 1015.45 1016.13 1016.73 1017.20 1017.40 1017.48 1017.74 1017.96 1018.05 1018.27 1018.32 1018.61 1018.77 1019.47 1019.79 1019.80 1019.72 1019.54 1019.30 1019.19 1019.07 1018.59
1008.68 1007.95 1007.95 1008.03 1008.13 1008.21 1008.30 1008.68 1008.57 1009.39 1010.00 1011.04 1011.60 1012.62 1013.37 1014.23 1014.72 1015.47 1016.27 1016.98 1017.14 1017.12 1017.35 1017.56 1017.93 1018.39 1018.31 1018.24 1018.79 1019.55 1019.66 1019.83 1019.52 1019.38 1019.10 1018.99 1018.73 1018.49
1008.88 1008.29 1008.07 1007.91 1007.96 1008.04 1007.93 1007.74 1008.13 1008.67 1009.16 1009.89 1010.85 1011.55 1012.43 1013.05 1014.02 1014.85 1015.68 1016.66 1017.32 1016.99 1017.18 1017.69 1017.93 1018.34 1018.19 1018.37 1018.58 1018.95 1019.40 1019.66 1019.46 1019.37 1019.11 1018.88 1018.77 1018.56
1008.60 1008.53 1008.56 1008.09 1007.93 1007.87 1007.75 1007.72 1007.70 1007.96 1008.13 1008.32 1009.05 1010.01 1011.04 1011.96 1013.27 1014.44 1014.87 1015.40 1015.95 1016.84 1017.15 1017.84 1017.68 1018.02 1018.06 1018.27 1018.49 1018.67 1019.14 1019.24 1019.07 1019.17 1019.31 1019.08 1018.58 1018.55
1008.62 1008.51 1008.22 1008.06 1007.98 1007.95 1007.39 1007.50 1007.76 1007.58 1008.08 1008.41 1008.73 1008.97 1009.58 1010.85 1011.31 1012.97 1013.84 1014.81 1015.63 1016.40 1016.87 1017.41 1017.67 1018.08 1018.18 1018.55 1018.43 1018.37 1018.61 1018.99 1018.86 1018.75 1019.38 1019.40 1019.39 1018.85
1008.42 1008.16 1007.78 1007.81 1007.61 1007.72 1007.44 1007.34 1007.63 1007.84 1007.79 1008.26 1008.44 1008.82 1009.04 1010.23 1010.57 1012.53 1013.53 1014.73 1015.66 1016.15 1016.86 1016.88 1017.60 1018.09 1018.46 1018.81 1018.56 1018.21 1018.18 1018.89 1018.78 1018.58 1019.38 1019.37 1019.49 1019.53
1007.97 1007.73 1007.58 1007.33 1007.07 1007.16 1007.28 1007.22 1007.64 1007.78 1007.92 1008.40 1008.61 1008.94 1009.26 1010.07 1010.91 1011.20 1012.31 1013.36 1014.46 1015.74 1015.65 1016.36 1017.26 1017.75 1018.80 1018.87 1018.82 1018.39 1018.28 1018.46 1018.52 1018.75 1019.08 1019.36 1019.27 1020.07
1007.97 1007.27 1006.85 1006.55 1006.44 1006.40 1006.76 1006.76 1007.16 1007.66 1008.08 1008.26 1008.80 1009.37 1009.80 1010.35 1010.81 1011.51 1012.12 1012.50 1013.74 1014.14 1014.51 1015.61 1016.76 1017.70 1018.30 1018.84 1018.77 1018.67 1018.64 1018.80 1018.56 1019.05 1019.41 1019.21 1019.35 1019.86
1007.65 1007.07 1006.48 1006.09 1005.90 1005.79 1006.06 1006.28 1006.71 1007.33 1007.82 1008.53 1009.01 1009.64 1010.26 1010.46 1011.12 1011.71 1012.01 1012.78 1013.01 1013.31 1013.81 1014.80 1016.38 1016.92 1017.98 1018.99 1019.00 1019.10 1019.03 1019.17 1018.81 1019.35 1019.87 1019.37 1019.58 1019.69
1007.60 1006.88 1006.28 1005.64 1005.33 1005.18 1005.29 1005.75 1006.31 1007.17 1007.50 1008.21 1008.57 1008.85 1009.39 1010.23 1011.06 1011.68 1012.30 1012.97 1013.72 1013.64 1014.14 1014.64 1015.14 1016.61 1017.17 1018.11 1018.59 1018.64 1019.03 1019.25 1019.19 1019.56 1019.96 1019.83 1020.13 1020.15
1007.58 1006.88 1006.26 1005.57 1005.00 1004.74 1004.77 1004.98 1005.52 1006.24 1006.82 1007.27 1007.88 1008.67 1009.64 1010.51 1011.09 1011.44 1012.31 1013.01 1013.57 1014.40 1014.77 1015.30 1015.63 1015.90 1017.04 1017.68 1017.77 1018.43 1018.84 1019.25 1019.21 1019.62 1019.73 1019.95 1020.06 1019.88
1007.33 1006.70 1006.11 1005.44 1004.94 1004.59 1004.49 1004.66 1004.83 1005.79 1006.20 1006.89 1007.61 1008.39 1009.28 1009.98 1010.70 1011.24 1012.14 1012.95 1013.34 1014.14 1014.68 1015.34 1015.83 1015.89 1016.44 1016.88 1017.68 1017.77 1018.42 1018.76 1018.91 1019.20 1019.69 1020.02 1019.98 1019.73
1007.14 1006.57 1005.94 1005.23 1004.80 1004.48 1004.29 1004.22 1004.57 1005.08 1005.22 1006.42 1007.16 1007.60 1008.46 1009.42 1010.29 1011.19 1011.88 1012.33 1013.18 1013.95 1014.10 1014.95 1015.57 1016.11 1016.55 1016.53 1016.58 1017.39 1017.90 1018.36 1018.66 1019.29 1019.56 1019.81 1019.86 1019.60
1006.84 1006.28 1005.80 1005.23 1004.59 1004.19 1004.06 1004.03 1004.11 1004.64 1005.08 1005.66 1006.06 1007.33 1007.97 1009.04 1009.79 1010.61 1011.43 1012.22 1013.05 1013.57 1014.03 1014.71 1015.11 1015.62 1016.48 1016.45 1016.45 1016.47 1017.22 1017.78 1018.44 1019.37 1019.45 1019.40 1019.51 1019.35
1006.52 1006.24 1005.77 1005.30 1004.66 1004.10 1003.93 1003.90 1004.04 1004.43 1004.81 1005.26 1005.93 1006.55 1007.35 1008.21 1009.06 1010.00 1011.08 1011.73 1012.47 1013.36 1014.08 1014.41 1014.57 1014.76 1015.19 1015.42 1015.89 1016.30 1016.46 1017.06 1018.13 1018.80 1019.16 1019.13 1019.15 1018.97
1006.22 1005.92 1005.65 1005.11 1004.58 1003.91 1003.67 1003.59 1003.55 1003.80 1004.12 1004.67 1005.05 1005.85 1006.35 1007.31 1008.21 1009.11 1010.00 1010.96 1011.83 1012.76 1013.41 1013.75 1013.68 1014.11 1014.98 1015.08 1015.72 1016.32 1016.38 1016.67 1017.39 1017.88 1018.29 1018.68 1018.98 1019.11
1005.87 1005.60 1005.36 1005.10 1004.51 1003.93 1003.55 1003.39 1003.33 1003.44 1003.67 1004.06 1004.52 1005.08 1005.72 1006.38 1007.15 1008.07 1009.16 1010.07 1010.94 1011.69 1012.35 1013.01 1013.51 1014.30 1015.00 1015.31 1015.60 1016.03 1016.43 1016.90 1017.22 1017.37 1017.32 1017.63 1018.25 1018.48
1005.41 1005.14 1004.87 1004.56 1004.13 1003.70 1003.28 1003.01 1003.00 1003.07 1003.24 1003.57 1004.16 1004.32 1005.01 1005.69 1006.56 1007.24 1008.26 1009.25 1010.22 1011.26 1011.89 1012.75 1013.51 1013.98 1014.46 1014.96 1015.26 1015.73 1016.29 1016.83 1017.16 1017.25 1017.40 1017.52 1017.85 1018.05
Wind_Speed
9 8 8 7 6 8 8 9 11 8 9 4 3 3 4 5 6 4 5 11 12 12 11 10 7 5 5 4 4 2 4 5 7 9 10 11 12 13
9 8 8 7 7 6 9 7 4 8 5 3 2 2 6 4 6 5 5 7 10 10 10 9 6 5 4 4 4 3 4 7 7 8 9 11 12 13
8 9 10 7 6 7 8 7 5 3 4 0 2 3 3 6 5 4 4 4 3 7 7 7 7 5 5 4 4 3 5 6 6 7 8 9 10 12
12 10 11 7 10 7 6 5 5 5 4 5 2 3 3 5 5 6 4 3 4 4 5 4 4 5 5 4 4 4 3 5 6 7 7 10 11 12
12 12 13 11 11 8 9 8 7 5 6 4 5 2 3 5 4 3 3 3 2 4 5 6 6 5 6 6 4 2 2 3 4 6 7 8 10 12
6 9 10 10 12 11 11 12 9 8 7 6 3 4 3 3 4 4 3 2 3 3 4 4 4 4 5 7 7 4 1 1 3 5 7 8 10 12
8 5 5 8 12 13 8 9 10 9 6 6 4 3 4 5 9 4 3 3 3 3 3 3 2 2 2 5 5 5 2 2 2 5 6 6 7 9
9 8 7 8 9 11 13 13 14 11 11 8 4 6 6 4 5 5 4 3 2 3 4 2 4 4 3 2 7 7 4 2 2 4 5 5 6 7
7 6 8 5 8 7 12 13 13 15 15 12 12 7 7 8 8 4 3 4 5 3 3 2 3 3 3 3 8 8 5 3 1 2 3 3 4 5
7 7 7 8 6 7 6 6 7 7 7 6 10 8 7 11 12 8 9 5 4 3 3 4 2 2 2 2 6 8 7 4 2 3 3 4 3 5
7 7 6 8 9 11 6 7 6 3 4 9 8 11 14 17 15 9 6 7 2 3 4 3 3 3 2 2 3 7 7 6 5 6 3 1 3 4
8 6 12 10 12 13 8 7 7 6 6 5 6 7 10 12 18 8 10 9 4 2 6 5 3 4 1 1 2 1 1 6 7 7 6 3 4 1
7 7 5 12 14 13 15 8 8 7 9 5 5 4 4 6 6 5 8 8 5 2 5 5 3 3 2 2 1 1 2 1 3 4 4 2 3 3
7 7 9 13 14 14 13 13 11 10 6 5 5 5 5 5 5 4 5 4 3 3 11 6 4 4 4 1 3 1 1 1 3 3 1 1 2 1
8 12 19 18 17 14 17 15 15 6 6 6 8 6 4 5 6 5 6 7 6 5 4 3 5 4 3 3 3 3 4 3 2 3 2 2 2 1
15 11 16 17 15 12 10 11 8 8 8 8 7 4 5 4 3 3 3 3 4 3 5 4 4 5 3 2 3 3 1 4 2 2 2 1 2 2
17 8 8 5 5 5 4 6 7 7 7 6 6 6 6 6 5 4 2 2 3 5 5 4 3 4 3 6 2 2 3 2 2 3 2 1 2 3
10 8 8 6 7 7 6 6 6 11 8 7 6 7 8 8 7 5 2 3 3 3 6 5 5 3 3 2 4 3 2 3 2 3 2 3 1 2
7 7 6 7 7 7 6 6 6 8 8 7 7 7 7 6 10 7 5 5 2 3 2 4 4 4 3 4 2 8 4 2 4 2 2 2 3 2
5 7 7 7 7 6 6 6 5 5 7 8 9 9 9 9 9 8 6 6 5 3 2 2 5 3 5 7 5 2 8 5 3 3 3 1 1 1
6 6 6 7 7 6 5 5 5 6 7 8 8 9 10 10 9 9 9 13 10 4 6 6 7 10 2 3 3 2 2 6 5 4 4 3 2 1
6 5 5 7 6 8 5 5 5 6 7 7 8 8 9 10 10 11 10 9 7 6 5 4 5 4 2 2 3 4 3 2 4 6 7 6 5 4
5 6 6 6 7 6 6 4 5 6 6 7 7 8 8 9 9 10 9 9 8 7 6 5 4 3 3 3 5 3 4 3 4 3 1 6 5 6
Wind_Direction
244 220 211 219 214 223 224 222 224 213 205 187 166 165 149 159 178 157 138 127 123 124 120 116 115 104 100 102 78 30 28 18 3 344 338 330 333 335
233 231 232 227 218 214 218 219 225 227 205 151 180 146 153 160 168 132 133 134 145 145 143 134 127 129 139 125 100 39 16 12 355 346 339 337 338 335
220 216 226 225 227 223 228 203 181 169 138 163 100 137 155 163 135 127 127 125 120 150 149 156 152 165 168 147 129 79 43 19 356 346 339 339 335 334
224 218 221 216 218 202 209 195 180 177 144 158 132 140 160 162 146 140 157 143 159 175 181 184 177 197 188 186 107 75 38 23 359 346 340 334 333 340
231 224 232 220 223 211 206 212 206 188 179 159 152 150 126 167 137 138 161 151 181 194 212 211 199 210 197 180 151 122 43 27 3 340 341 331 331 337
281 241 232 228 223 217 208 210 204 198 190 175 135 131 134 139 146 158 153 173 191 170 219 207 196 228 216 213 163 161 190 359 338 338 343 335 337 341
290 267 265 251 228 224 209 220 198 191 176 185 150 138 153 158 190 152 158 149 227 164 180 193 172 179 216 190 148 197 227 285 333 344 346 333 337 340
291 293 268 249 253 247 226 207 197 192 192 173 176 186 167 142 142 157 137 141 221 213 168 230 156 218 201 146 182 199 219 248 355 359 353 344 338 337
289 281 281 268 249 238 237 228 217 217 213 187 183 178 152 162 146 146 153 150 165 190 128 210 165 199 177 191 205 197 206 198 83 26 352 332 50 28
273 273 271 272 257 241 216 207 208 199 190 187 183 171 151 167 157 175 176 125 79 115 168 177 138 192 127 185 202 199 202 190 149 114 113 60 21 36
276 265 259 267 255 228 212 196 188 175 146 177 151 168 157 173 153 138 148 149 159 173 215 147 162 138 173 211 219 214 192 191 169 133 131 96 40 43
281 260 260 252 258 238 219 203 205 195 152 136 127 136 150 162 168 172 158 174 136 166 195 158 146 140 213 237 223 196 118 185 170 159 154 113 93 47
296 279 255 248 252 249 227 202 214 151 172 154 142 129 141 158 164 147 175 161 158 152 173 119 143 134 104 146 188 178 165 141 88 116 127 99 125 153
302 306 279 259 242 227 230 218 210 165 147 149 151 165 173 167 157 146 125 103 78 149 162 130 135 145 130 119 160 172 178 163 115 142 173 120 117 86
314 304 307 288 251 236 224 211 191 170 166 175 189 183 160 134 122 98 86 91 67 62 92 128 136 150 124 147 156 176 138 212 149 138 158 144 178 239
316 305 307 299 259 235 223 219 187 179 183 193 188 136 118 134 129 119 123 144 111 116 78 81 108 131 120 139 124 152 194 165 136 158 132 130 206 202
304 295 297 283 267 242 225 204 170 179 181 173 163 159 161 155 156 138 110 125 115 150 147 139 119 101 100 146 112 158 154 132 164 138 111 183 248 213
302 294 288 268 258 251 223 201 187 184 171 179 175 170 167 168 160 153 122 141 133 163 151 154 147 86 45 326 171 144 126 141 136 156 137 130 278 255
291 295 307 298 264 248 238 217 201 197 168 174 164 168 158 161 164 167 156 153 123 129 127 155 144 126 117 177 285 189 148 143 124 128 182 165 173 218
291 300 300 305 286 252 237 223 199 175 178 174 172 165 165 164 160 164 172 171 157 129 130 132 170 165 154 177 164 229 179 122 141 155 172 125 243 247
289 286 302 299 300 270 239 227 208 196 184 180 175 177 169 170 169 165 168 183 172 148 175 184 196 168 116 80 76 110 131 173 163 157 159 118 142 123
278 283 288 289 290 294 260 222 211 207 192 189 185 177 172 174 169 167 170 175 181 174 167 139 127 114 104 130 153 130 119 114 200 171 161 152 166 190
263 277 284 288 293 292 275 242 220 210 199 191 186 175 170 172 170 166 165 168 161 159 148 137 136 121 151 137 147 123 130 133 162 165 175 222 192 128